Location: Budzy?
(50.0437°N, 19.7972°E)
Time: 04:53:52
(UTC+00:00)

Daily predictions for brighter satellites

Satellite Brightness Start Highest point End
(mag) Time Altitude Azimuth Time Altitude Azimuth Time Altitude Azimuth
SL-16 R/B 4.5 02:18:48 17° NNE 02:18:48 17° NNE 02:20:05 10° NNE
Cosmos 2360 Rocket 4.1 02:23:16 24° NE 02:23:16 24° NE 02:25:33 10° NE
Cosmos 2322 Rocket 4.3 02:24:25 19° NNE 02:24:25 19° NNE 02:25:57 10° NNE
Cosmos 1898 Rocket 4.3 03:07:46 48° E 03:07:46 48° E 03:12:10 10° SE
Cosmos 2278 Rocket 2.9 03:14:43 42° NNE 03:15:59 49° NE 03:21:28 10° SE
METEOR-M 4.4 03:15:17 10° NNE 03:20:39 66° ESE 03:21:32 56° SSE
Cosmos 1943 Rocket 4.5 03:19:44 12° N 03:22:55 17° NNE 03:26:36 10° ENE
COSMO-SKYMED 1 3.8 03:19:27 10° SSE 03:22:20 37° ESE 03:22:20 37° ESE
Cosmos 2322 3.6 03:27:03 83° SE 03:27:07 83° ESE 03:32:54 10° NNE
Cosmos 2237 Rocket 4.3 03:25:11 10° SSE 03:29:44 25° ESE 03:34:18 10° NE
Cosmos 2333 Rocket 2.2 03:32:04 68° S 03:32:46 79° ESE 03:38:28 10° NNE
Cosmos 1867 4.1 03:34:41 48° N 03:34:41 48° N 03:38:59 10° NE
Cosmos 2219 Rocket 2.2 03:33:24 56° S 03:34:32 74° ESE 03:40:09 10° NNE
Lacrosse 5 rocket 2.6 03:36:15 37° E 03:36:15 37° E 03:38:48 10° ESE
Cosmos 1937 Rocket 3.7 03:40:30 46° N 03:42:02 71° ENE 03:47:16 10° SSE
USA 215 3.7 03:40:13 10° ENE 03:46:27 49° N 03:48:02 41° NW
Okean 1-7 Rocket 3.9 03:46:01 38° N 03:47:39 67° ENE 03:52:08 10° SSE
GEOS 3 Rocket 3.6 03:44:12 10° SE 03:49:34 79° SW 03:50:25 63° WNW
COSMOS 2428 2.7 03:50:01 33° SSW 03:52:42 85° ESE 03:58:26 10° NNE
Cosmos 2333 4.1 03:54:44 61° WNW 03:55:00 61° WNW 04:00:36 10° NNE
IRIDIUM 104 4.2 03:53:20 10° S 03:58:33 73° W 04:03:48 10° N
Meteor 1-22 Rocket 4.3 03:58:12 54° W 03:58:39 55° WNW 04:04:33 10° N
SL-16 R/B 3.7 04:00:40 20° NNW 04:00:40 20° NNW 04:03:43 10° NNE
Cosmos 2034 Rocket 4.5 03:58:03 10° S 04:04:19 63° E 04:10:36 10° NNE
Cosmos 2360 Rocket 3.0 04:05:03 33° NNW 04:05:03 33° NNW 04:09:28 10° NNE
Cosmos 2322 Rocket 3.6 04:06:15 22° NNW 04:06:15 22° NNW 04:09:33 10° NNE
Cosmos 1455 Rocket 2.9 04:03:12 10° S 04:07:34 89° W 04:11:56 10° N
IRIDIUM 114 4.2 04:02:33 10° SSW 04:07:42 61° W 04:12:54 10° N
Nadezhda 4 Rocket 4.0 04:03:04 10° N 04:09:14 81° E 04:15:21 10° SSE
Cosmos 44 Rocket 3.3 04:08:17 50° WNW 04:09:36 73° SW 04:14:48 10° SSE
ALOS 3.8 04:07:15 10° N 04:09:03 21° NNW 04:09:03 21° NNW
SKYMED 2 3.9 04:07:25 10° S 04:10:55 47° SW 04:10:55 47° SW
FENGYUN 3A 4.1 04:06:43 10° N 04:11:19 41° NW 04:11:19 41° NW
ADEOS 3.6 04:09:14 10° N 04:14:21 57° WNW 04:17:45 21° SW
IRIDIUM 103 4.4 04:11:49 10° SSW 04:16:54 51° W 04:22:01 10° N
ATLAS 5 CENTAUR R/B 2.9 04:19:13 23° S 04:19:13 23° S 04:21:29 10° SSE
Cosmos 540 Rocket 3.9 04:13:28 10° S 04:18:31 63° ESE 04:23:35 10° NNE
ATLAS CENTAUR R/B 4.4 04:17:20 10° SE 04:18:53 12° ESE 04:20:24 10° E
Cosmos 990 Rocket 4.4 04:19:24 38° WSW 04:19:24 38° WSW 04:23:50 10° S
MOS 1 Rocket 3.3 04:15:10 10° S 04:20:09 67° W 04:23:48 17° NNW
deb Chang Zheng 4 3.3 04:16:05 10° NNE 04:20:22 78° WNW 04:24:35 10° SSW
Cosmos 1980 Rocket 4.4 04:21:02 10° NNW 04:21:20 10° NNW 04:21:58 10° N
Meteor PRIRODA 3.4 04:18:53 10° NNE 04:22:32 86° WNW 04:26:10 10° SSW
Cosmos 1953 2.3 04:19:36 10° S 04:23:36 82° E 04:27:35 10° NNE
Meteor 2-10 4.1 04:18:31 10° SSW 04:24:05 60° WNW 04:29:31 10° N
Okean O Rocket 4.3 04:20:44 10° NE 04:24:06 21° E 04:27:26 10° SE
ERS-2 3.0 04:21:04 10° S 04:23:29 34° SSW 04:23:29 34° SSW
Meteor 2-13 Rocket 4.3 04:18:28 10° NNW 04:24:40 79° W 04:30:48 10° S
Cosmos 1908 3.6 04:26:21 10° S 04:30:06 64° E 04:33:55 10° NNE
Cosmos 1726 3.8 04:35:57 20° NNW 04:35:57 20° NNW 04:37:20 10° N
Cosmos 1602 Rocket 3.6 04:32:31 10° N 04:37:00 84° E 04:41:28 10° S
SJ-12 4.3 04:33:35 10° N 04:37:29 40° WNW 04:39:02 28° WSW
PSLV R/B 4.1 04:35:08 10° S 04:39:07 48° W 04:41:22 24° NW
Cosmos 1461 3.1 04:35:33 16° SW 04:39:22 79° NW 04:44:10 10° NE
Cosmos 1689 Rocket 3.3 04:38:09 10° S 04:39:51 27° SSW 04:39:51 27° SSW
Cosmos 1763 Rocket 3.7 04:40:44 10° SW 04:45:41 48° WNW 04:50:47 10° NNE
Cosmos 2026 Rocket 4.2 04:39:57 10° N 04:46:17 75° ENE 04:52:40 10° SSE
Cosmos 1898 Rocket 4.4 04:48:06 25° W 04:48:54 26° W 04:53:09 10° SSW
Meteor 1-11 4.4 04:44:41 10° N 04:50:19 76° ENE 04:55:53 10° SSE
Cosmos 2084 4.1 04:49:48 28° WNW 04:51:22 38° NW 04:55:29 10° NE
Cosmos 841 Rocket 3.4 04:46:25 10° SSW 04:51:33 78° WNW 04:56:44 10° NNE
Cosmos 1758 4.4 04:54:43 24° WNW 04:54:43 24° WNW 04:57:36 10° NNW
Cosmos 1825 Rocket 4.4 04:50:07 10° N 04:54:30 54° ENE 04:58:54 10° SSE
Cosmos 2369 Rocket 3.6 04:49:35 10° NNW 04:54:42 34° NE 04:59:47 10° ESE
Cosmos 921 Rocket 3.6 04:53:25 19° WSW 04:55:51 33° WNW 04:59:42 10° N
NOSS 0 Rocket 3.9 04:50:44 10° SW 04:56:54 70° WNW 05:03:06 10° NNE
Cosmos 1340 2.8 04:56:03 13° NNW 04:59:11 48° W 05:02:48 10° S
Cosmos 2098 Rocket 4.0 04:52:41 10° N 04:59:18 75° ENE 05:04:35 10° SSE
Cosmos 2278 Rocket 2.9 04:56:36 19° NW 04:59:54 34° WSW 05:04:55 10° SSW
COSMO-SKYMED 1 4.0 04:56:58 10° SW 04:59:33 19° WSW 04:59:33 19° WSW
Cosmos 2298 Rocket 4.0 04:54:58 10° NNW 05:00:21 87° WSW 05:05:41 10° SSE
CZ-4B R/B 4.2 04:54:50 10° NNE 05:00:24 52° E 05:05:51 10° S
SL-16 R/B 3.4 04:55:25 10° S 05:00:45 45° ESE 05:06:09 10° NE
CZ-4B R/B 3.3 04:57:41 10° N 05:00:52 30° WNW 05:04:05 10° SW
Cosmos 1703 3.5 04:58:09 10° NNW 05:01:51 44° W 05:05:33 10° SSW
Cosmos 1570 Rocket 3.9 04:59:15 10° SSW 05:04:28 74° WNW 05:09:44 10° NNE
PAYLOAD B 4.4 05:01:55 10° NNE 05:07:31 78° ESE 05:13:07 10° SSW
Cosmos 1943 Rocket 2.7 05:02:15 10° NNW 05:07:52 61° ENE 05:13:28 10° SE
Cosmos 1346 Rocket 2.8 05:04:10 10° NNW 05:08:10 86° ENE 05:12:08 10° SSE
Cosmos 2195 Rocket 4.5 05:05:56 10° NNW 05:12:10 65° W 05:18:18 10° S
Cosmos 1464 Rocket 4.5 05:07:06 10° SW 05:12:37 35° WNW 05:18:12 10° N
CZ-2C R/B 2.6 05:07:43 10° S 05:12:56 71° WSW 05:18:17 10° NNW
Cosmos 2237 Rocket 2.2 05:07:43 10° SW 05:13:20 63° WNW 05:19:02 10° NNE
NOAA 12 4.3 05:08:23 10° NNE 05:13:42 79° ESE 05:19:00 10° SSW
Lacrosse 5 rocket 2.0 05:11:52 19° W 05:14:04 34° SW 05:17:27 10° SSE
H-2A R/B 3.5 05:10:59 10° N 05:14:12 29° WNW 05:17:27 10° SW
Cosmos 1953 Rocket 4.2 05:11:32 10° N 05:15:49 59° ENE 05:20:05 10° SSE
Lacrosse 4 Rocket 2.1 05:12:53 10° SSW 05:17:03 61° ESE 05:21:22 10° NE
Cosmos 2333 Rocket 3.2 05:14:07 14° W 05:17:42 25° NW 05:22:22 10° NNE
Cosmos 1939 Rocket 4.2 05:14:17 10° NNE 05:18:05 44° E 05:21:49 10° S
Cosmos 1544 Rocket 4.4 05:14:57 10° SW 05:18:42 28° WNW 05:22:28 10° N
Cosmos 2219 Rocket 3.2 05:15:11 13° W 05:19:04 26° NW 05:23:44 10° NNE
Cosmos 1125 Rocket 3.5 05:18:21 10° NNW 05:23:40 82° WSW 05:28:59 10° SSE
Cosmos 2208 Rocket 4.1 05:18:58 10° SW 05:24:23 64° WNW 05:29:47 10° NNE
BREEZE-M DEB (TANK) 4.4 05:20:11 13° WNW 05:25:55 25° WSW 05:29:00 10° S
Envisat 3.3 05:22:49 10° N 05:27:38 44° WNW 05:32:26 10° SW
Cosmos 1814 Rocket 4.1 05:23:53 10° SW 05:28:54 53° WNW 05:33:56 10° NNE
USA 215 3.6 05:22:35 10° E 05:28:56 57° NNE 05:35:19 10° WNW
Cosmos 2084 Rocket 3.5 05:25:15 11° NW 05:29:21 71° SW 05:33:50 10° SE
CZ-4 R/B 4.0 05:27:57 10° NE 05:31:07 23° E 05:34:15 10° SSE
Cosmos 1606 Rocket 3.6 05:27:23 10° S 05:31:42 83° E 05:36:03 10° NNE
Cosmos 2297 3.8 05:26:06 10° NNW 05:31:48 65° WSW 05:37:28 10° SSE
Cosmos 1400 Rocket 3.4 05:28:16 10° SW 05:32:04 37° WNW 05:35:56 10° N
NOAA 6 4.1 05:27:31 10° N 05:32:35 55° WNW 05:37:38 10° SW
CORIOLIS 4.2 05:28:33 10° NNE 05:33:57 88° WNW 05:39:18 10° SSW
FALCON 9 DEB 3.1 05:32:30 10° WSW 05:35:55 84° SSE 05:39:20 10° ENE
Cosmos 1092 Rocket 4.4 05:31:40 10° NNW 05:37:18 39° W 05:42:56 10° SSW
YAOGAN 6 3.7 05:34:17 10° NNW 05:37:19 24° WNW 05:40:21 10° WSW
COSMOS 2428 3.8 05:33:08 10° W 05:37:43 24° NW 05:42:18 10° NNE
SL-4 R/B 3.5 05:34:49 10° SW 05:38:26 37° SE 05:42:20 10° ENE
NOAA 11 4.2 05:35:54 10° NNE 05:41:25 82° WNW 05:46:51 10° SSW
Cosmos 2228 2.9 05:37:11 10° SSW 05:41:26 71° WNW 05:45:40 10° N
Cosmos 1455 4.3 05:40:38 10° SSE 05:43:55 30° E 05:47:13 10° NNE
MOS 1-B 4.4 05:38:17 10° N 05:43:57 58° WNW 05:49:35 10° SW
Cosmos 1980 4.2 05:41:11 10° WSW 05:46:27 38° NW 05:51:43 10° NNE
Cosmos 2292 Rocket 2.5 05:43:59 10° NNW 05:46:57 73° W 05:49:58 10° S
Cosmos 1300 2.9 05:44:34 10° SSW 05:48:16 49° WNW 05:52:00 10° N
Cosmos 1825 3.7 05:46:22 10° N 05:49:55 37° ENE 05:53:28 10° SE
Cosmos 2360 Rocket 4.1 05:48:09 10° NW 05:50:11 12° NNW 05:52:14 10° N
H-2A R/B 3.0 05:46:27 10° N 05:50:42 44° WNW 05:54:58 10° SW
Cosmos 2279 Rocket 4.0 05:45:15 10° SSW 05:51:28 76° W 05:57:47 10° N
Cosmos 972 Rocket 4.5 05:48:50 10° SW 05:55:11 58° WNW 06:00:52 10° NNE
Cosmos 1656 Rocket 4.3 05:52:05 10° NNW 05:57:28 53° NE 06:02:45 10° SE
Meteor 2-10 Rocket 4.4 05:52:01 10° S 05:57:46 66° E 06:03:31 10° NNE
